Погода в Коряково

Россия / Костромская область     57°44′24″N   40°47′58″E
темп.,
°C
ветер,
м/с
пор.,
м/с
влажн.,
%
обл.,
%
осадки,
мм/ч
давл.,
гПа
погр.,
м
13 мая, чт
чт1300:00+14вюв379227 0.1 1022109
03:00+13юв35907 0.1 102166
06:00+14юв3789100 0.0 1021227
09:00+18юв477412 0.0 1021733
12:00+21юв69591 0.0 10201646
15:00+22юв586491 0.6 10171301
18:00+17ююв71286100 3.8 1015739
21:00+14ююз2498100 13.7 1015169
14 мая, пт
пт1400:00+11ююз35961 0.0 1017110
03:00+10ююз2295100 0.0 101839
06:00+12ю259062 0.0 1019155
09:00+16ююз35716 0.0 1019661
12:00+19ю4661100 0.1 10181524
15:00+19ю356854 0.2 10181212
18:00+19ююв3675100 0.6 1016421
21:00+15ююв4108832 2.2 1016289
15 мая, сб
сб1500:00+14юв2290100 0.2 101543
03:00+14юв41095100 1.0 1013235
06:00+15ююв4129499 0.0 1013349
09:00+18юв348292 0.1 1012368
12:00+23юв6969100 0.0 1010833
15:00+21ю51181100 8.7 1009496
18:00+18ю4118491 2.0 1008501
21:00+16ю513900 3.4 1009361
16 мая, вс
вс1600:00+14ю513930 0.0 1009364
03:00+13ю512950 0.0 1009354
06:00+14ююз511938 0.0 1010476
09:00+17ююз697642 0.0 1010991
12:00+19юз797133 0.9 10111381
15:00+19юз7107198 2.9 10111266
18:00+18юз5107830 0.9 1011874
21:00+14ююз410915 1.0 1011223
17 мая, пн
пн1700:00+14ююз4119157 0.0 1012278
03:00+12ююз38961 0.0 1013173
06:00+14юз36920 0.0 1014203
09:00+18юз4576100 0.0 1015651
12:00+21юз4565100 0.0 10151122
15:00+23зюз3458100 0.0 10151422
18:00+22ю1269100 0.0 101567
21:00+17вюв22825 0.0 101517